Weather History for Naha City, Japan

Change the Weather History Date:

Tuesday, February 12, 2013

  Actual Average Record
Temperature  
Mean Temperature 70 °F -  
Max Temperature 75 °F 68 °F 75 °F (2001)
Min Temperature 64 °F 59 °F 53 °F (2002)
Cooling Degree Days 4    
Growing Degree Days 20 (Base 50)    
Moisture  
Dew Point 63 °F    
Average Humidity 82    
Maximum Humidity 94    
Minimum Humidity 69    
Precipitation  
Precipitation 0.00 in - - ()
Sea Level Pressure  
Sea Level Pressure 30.07 in    
Wind  
Wind Speed 12 mph ()    
Max Wind Speed 25 mph    
Max Gust Speed -    
Visibility 5.0 miles    
Events Rain    
Averages and records for this station are not official NWS values.
T = Trace of Precipitation, MM = Missing Value Source: Averaged Metar Reports

Daily Weather History Graph

Daily Weather History Graph

Search for Another Location

Airport:

Trip Planner

Search our weather history database for the weather conditions in past years. The results will help you decide how hot, cold, wet, or windy it might be!

Date:

Astronomy

Feb. 12, 2013 Rise Set
Actual Time 7:07 AM JST 6:20 PM JST
Civil Twilight 6:43 AM JST 6:43 PM JST
Nautical Twilight 6:16 AM JST 7:11 PM JST
Astronomical Twilight 5:49 AM JST 7:38 PM JST
Moon 8:01 AM JST (2/12) 8:22 PM JST (2/12)
Length of Visible Light 12h 00m
Length of Day
11h 12m
Waxing Crescent, 4% of the Moon is Illuminated
Feb 12
Waxing Crescent
Feb 18
First Quarter
Feb 26
Full
Mar 5
Last Quarter
Mar 12
New

Hourly Weather History & Observations

Time (JST) Temp. Dew Point Humidity Pressure Visibility Wind Dir Wind Speed Gust Speed Precip Events Conditions
12:00 AM 64.4 °F 60.8 °F 88% 30.15 in 2.5 mi East 8.1 mph - N/A Rain Rain Showers
12:09 AM 64.4 °F 60.8 °F 88% 30.15 in 3.7 mi ENE 6.9 mph - N/A Rain Light Rain Showers
12:30 AM 64.4 °F 60.8 °F 88% 30.15 in 3.7 mi East 9.2 mph - N/A Rain Light Rain Showers
1:00 AM 64.4 °F 60.8 °F 88% 30.15 in 3.7 mi ENE 8.1 mph - N/A Rain Light Rain Showers
1:13 AM 64.4 °F 60.8 °F 88% 30.15 in 2.5 mi ENE 5.8 mph - N/A Rain Rain Showers
1:30 AM 64.4 °F 60.8 °F 88% 30.12 in 2.5 mi ENE 6.9 mph - N/A Rain Rain Showers
2:00 AM 64.4 °F 60.8 °F 88% 30.12 in 3.7 mi ENE 4.6 mph - N/A Rain Light Rain Showers
2:08 AM 64.4 °F 62.6 °F 94% 30.12 in 2.5 mi NE 4.6 mph - N/A Rain Heavy Rain Showers
2:20 AM 64.4 °F 62.6 °F 94% 30.12 in 2.5 mi Variable 2.3 mph - N/A Rain Rain Showers
2:30 AM 64.4 °F 62.6 °F 94% 30.12 in 3.7 mi ENE 3.5 mph - N/A Rain Rain Showers
2:48 AM 64.4 °F 62.6 °F 94% 30.09 in 2.5 mi Variable 1.2 mph - N/A Rain Heavy Rain Showers
3:00 AM 66.2 °F 62.6 °F 88% 30.09 in 3.7 mi Variable 4.6 mph - N/A Rain Rain Showers
3:30 AM 66.2 °F 62.6 °F 88% 30.09 in 6.2 mi East 5.8 mph - N/A   Mostly Cloudy
4:00 AM 66.2 °F 62.6 °F 88% 30.09 in 6.2 mi East 6.9 mph - N/A   Mostly Cloudy
4:30 AM 66.2 °F 62.6 °F 88% 30.06 in 6.2 mi ENE 8.1 mph - N/A   Mostly Cloudy
5:00 AM 66.2 °F 62.6 °F 88% 30.06 in 6.2 mi East 6.9 mph - N/A Rain Light Rain Showers
5:30 AM 66.2 °F 62.6 °F 88% 30.06 in 6.2 mi East 4.6 mph - N/A   Mostly Cloudy
6:00 AM 66.2 °F 62.6 °F 88% 30.09 in 6.2 mi ESE 3.5 mph - N/A   Mostly Cloudy
6:30 AM 66.2 °F 62.6 °F 88% 30.09 in 6.2 mi SSE 6.9 mph - N/A   Mostly Cloudy
7:00 AM 68.0 °F 62.6 °F 83% 30.09 in 6.2 mi South 15.0 mph - N/A   Mostly Cloudy
8:00 AM 69.8 °F 62.6 °F 78% 30.09 in 6.2 mi South 12.7 mph - N/A   Mostly Cloudy
8:30 AM 69.8 °F 62.6 °F 78% 30.09 in 6.2 mi South 19.6 mph - N/A Rain Light Rain Showers
9:00 AM 69.8 °F 60.8 °F 73% 30.09 in 6.2 mi South 20.7 mph - N/A   Scattered Clouds
9:30 AM 71.6 °F 64.4 °F 78% 30.09 in 6.2 mi South 19.6 mph - N/A   Scattered Clouds
10:00 AM 71.6 °F 64.4 °F 78% 30.09 in 6.2 mi South 19.6 mph - N/A   Scattered Clouds
10:30 AM 73.4 °F 64.4 °F 73% 30.09 in 6.2 mi South 19.6 mph - N/A   Scattered Clouds
11:00 AM 73.4 °F 64.4 °F 73% 30.09 in 6.2 mi South 20.7 mph - N/A   Scattered Clouds
11:30 AM 73.4 °F 64.4 °F 73% 30.06 in 6.2 mi South 20.7 mph - N/A   Mostly Cloudy
12:00 PM 75.2 °F 64.4 °F 69% 30.06 in 6.2 mi South 21.9 mph - N/A   Scattered Clouds
12:30 PM 75.2 °F 64.4 °F 69% 30.04 in 6.2 mi South 21.9 mph - N/A   Scattered Clouds
1:00 PM 73.4 °F 64.4 °F 73% 30.04 in 6.2 mi South 21.9 mph - N/A   Scattered Clouds
1:30 PM 73.4 °F 64.4 °F 73% 30.04 in 6.2 mi South 19.6 mph - N/A   Mostly Cloudy
2:00 PM 73.4 °F 64.4 °F 73% 30.01 in 6.2 mi SSW 19.6 mph - N/A   Mostly Cloudy
2:30 PM 73.4 °F 64.4 °F 73% 30.01 in 6.2 mi SSW 20.7 mph - N/A   Mostly Cloudy
3:00 PM 71.6 °F 64.4 °F 78% 30.01 in 6.2 mi SSW 20.7 mph - N/A Rain Light Rain Showers
3:30 PM 71.6 °F 64.4 °F 78% 29.98 in 6.2 mi SSW 21.9 mph - N/A Rain Light Rain Showers
4:00 PM 71.6 °F 64.4 °F 78% 30.01 in 6.2 mi SSW 20.7 mph - N/A   Mostly Cloudy
4:30 PM 71.6 °F 64.4 °F 78% 30.01 in 6.2 mi SSW 20.7 mph - N/A   Mostly Cloudy
5:00 PM 71.6 °F 64.4 °F 78% 30.01 in 6.2 mi SSW 21.9 mph - N/A Rain Light Rain Showers
5:30 PM 71.6 °F 64.4 °F 78% 30.01 in 5.6 mi SSW 20.7 mph - N/A Rain Rain Showers
6:00 PM 71.6 °F 66.2 °F 83% 30.01 in 1.9 mi SSW 20.7 mph - N/A Rain Heavy Rain Showers
6:08 PM 71.6 °F 66.2 °F 83% 30.01 in 1.2 mi SSW 20.7 mph - N/A Rain Heavy Rain Showers
6:10 PM 69.8 °F 66.2 °F 88% 30.01 in 0.2 mi SSW 20.7 mph - N/A Rain Heavy Rain Showers
6:16 PM 69.8 °F 64.4 °F 83% 29.98 in 1.9 mi SW 21.9 mph - N/A Rain Heavy Rain Showers
6:21 PM 68.0 °F 64.4 °F 88% 30.04 in 3.1 mi WNW 21.9 mph - N/A Rain Heavy Rain Showers
6:30 PM 68.0 °F 64.4 °F 88% 30.04 in 3.1 mi NNW 17.3 mph - N/A Rain Rain Showers
6:36 PM 68.0 °F 64.4 °F 88% 30.04 in 2.5 mi NW 15.0 mph - N/A Rain Rain Showers
7:00 PM 68.0 °F 62.6 °F 83% 30.06 in 3.1 mi NNW 21.9 mph - N/A Rain Light Rain Showers
7:30 PM 66.2 °F 62.6 °F 88% 30.06 in 6.2 mi North 25.3 mph - N/A Rain Light Rain Showers
8:00 PM 66.2 °F 60.8 °F 83% 30.06 in 6.2 mi North 24.2 mph - N/A Rain Light Rain Showers
8:30 PM 66.2 °F 60.8 °F 83% 30.06 in 6.2 mi North 21.9 mph - N/A Rain Light Rain Showers
9:00 PM 68.0 °F 60.8 °F 78% 30.09 in 6.2 mi North 23.0 mph - N/A   Mostly Cloudy
9:30 PM 68.0 °F 60.8 °F 78% 30.09 in 6.2 mi North 23.0 mph - N/A   Mostly Cloudy
10:00 PM 66.2 °F 59.0 °F 78% 30.09 in 6.2 mi North 21.9 mph - N/A Rain Light Rain Showers
10:30 PM 66.2 °F 59.0 °F 78% 30.09 in 6.2 mi North 21.9 mph - N/A   Mostly Cloudy
11:00 PM 66.2 °F 59.0 °F 78% 30.09 in 6.2 mi North 21.9 mph - N/A Rain Light Rain Showers
11:09 PM 66.2 °F 59.0 °F 78% 30.09 in 3.7 mi North 21.9 mph - N/A Rain Rain Showers
11:23 PM 64.4 °F 59.0 °F 83% 30.09 in 6.2 mi North 20.7 mph - N/A Rain Light Rain Showers
11:30 PM 64.4 °F 59.0 °F 83% 30.09 in 6.2 mi North 20.7 mph - N/A Rain Light Rain Showers